HULIANWANG DIGUI-120 (67060 NORAD) Tracking and Keplerian Element Data

This shows tracking and keplerian element data for the satellite.

Feedback or suggestion? Click here.




ElementValue
Catalog67060
NameHULIANWANG DIGUI-120
Epoch Orbit54
Epoch Day349.71694909
Epoch Year2025
RAAN359.6709
Inclination50.005
Eccentricity0.0013223
Argument of Perigee257.265
Mean Anonmoly102.6786
Mean Motion14.25706335
Decay Rate0
L11 67060U 25295B 25349.71694909 .00000000 00000+0 66896-4 0 9998
L22 67060 50.0050 359.6709 0013223 257.2650 102.6786 14.25706335 543



Live tracking and technical data element details for HULIANWANG DIGUI-120 (NORAD 67060). HULIANWANG DIGUI-120 can be tracked NOW for your location showing map with azimuth and elevation plus other details from your city location.







IsCatalogInMostPopularTable: catalog: 67060, numindb: 42
Update: records affected: 1



GetName: 67060 HULIANWANG DIGUI-120

Hit Count: updated at: Tue, 17 Feb 2026 12:38:03 GMT